Flight Briefing for CPX779

Departure Arrival
Chinggis Khaan International Airport (ZMUB)
Click to view FAA NOTAMS
Incheon International Airport (RKSI)
Click to view FAA NOTAMS
Departure Time Arrival Time
N/A N/A
Aircraft Distance
B767-300BDSF 1066nm
Departure METAR Arrival METAR
ZMUB 271100Z 33007MPS 9999 SCT100 22/M08 Q1015 NOSIG RMK QFE654.3 12 MOP RKSI 271100Z 31013KT 9999 FEW030 SCT180 17/10 Q1004 NOSIG
Suggested Route
SND A575 PIDOX V1 PAMDA A326 DONVO G597 GONAV GONAV2M


View recent IFR Routes data
Notes



Charts and Procedures

Charts for ZMUB
No chart available
Charts for RKSI
No chart available

Windy.com Weather Map